GW3605 Weather Reports


time (UTC)temp
C
wind
direction
speed
KPH
gust
KPH
rain 1hr
cm
rain 24hr
cm
rain mn
cm
humidity
%
barometer
mb
20260906161549 25 154 1.6 4.8 0.00 0.00 0.00 70 1021.0
20260906161048 25 110 1.6 6.4 0.00 0.00 0.00 70 1020.9
20260906160547 25 355 3.2 4.8 0.00 0.00 0.00 71 1020.9
20260906160046 25 60 3.2 4.8 0.00 0.00 0.00 71 1021.1
20260906155543 25 171 1.6 4.8 0.00 0.00 0.00 72 1021.0
20260906155040 25 94 6.4 6.4 0.00 0.00 0.00 72 1020.9
20260906154535 23 110 3.2 6.4 0.00 0.00 0.00 74 1021.2
20260906154033 24 111 3.2 9.7 0.00 0.00 0.00 73 1021.0
20260906153532 25 111 0.0 11.3 0.00 0.00 0.00 75 1021.2
20260906153028 23 162 4.8 6.4 0.00 0.00 0.00 75 1020.9
20260906152522 23 153 3.2 4.8 0.00 0.00 0.00 78 1021.1
20260906152021 23 101 1.6 4.8 0.00 0.00 0.00 77 1021.2
20260906151517 24 62 3.2 4.8 0.00 0.00 0.00 74 1021.1
20260906151013 23 49 0.0 3.2 0.00 0.00 0.00 77 1021.0
20260906150508 24 146 8.0 11.3 0.00 0.00 0.00 76 1020.9
20260906150008 25 105 0.0 3.2 0.00 0.00 0.00 77 1021.0
20260906145502 23 125 0.0 4.8 0.00 0.00 0.00 81 1020.9
20260906145001 23 119 4.8 6.4 0.00 0.00 0.00 78 1020.8
20260906144456 22 146 4.8 11.3 0.00 0.00 0.00 81 1020.7
20260906143951 23 141 1.6 9.7 0.00 0.00 0.00 78 1021.0
20260906143447 23 139 0.0 4.8 0.00 0.00 0.00 80 1020.9
20260906142943 22 93 3.2 4.8 0.00 0.00 0.00 80 1020.8
20260906142437 23 142 1.6 3.2 0.00 0.00 0.00 80 1020.9
20260906141932 22 181 1.6 1.6 0.00 0.00 0.00 81 1021.0
20260906141432 22 38 3.2 4.8 0.00 0.00 0.00 81 1021.1
20260906140932 22 135 1.6 3.2 0.00 0.00 0.00 81 1021.2
20260906140426 22 106 3.2 3.2 0.00 0.00 0.00 81 1020.9
20260906135924 22 157 3.2 3.2 0.00 0.00 0.00 83 1021.0
20260906135424 22 167 0.0 1.6 0.00 0.00 0.00 84 1021.1
20260906134919 22 182 1.6 3.2 0.00 0.00 0.00 83 1021.2
20260906134414 22 145 1.6 1.6 0.00 0.00 0.00 84 1021.0
20260906133904 21 145 0.0 0.0 0.00 0.00 0.00 85 1021.0
20260906133400 21 155 0.0 1.6 0.00 0.00 0.00 87 1021.0
20260906132855 21 129 3.2 3.2 0.00 0.00 0.00 87 1020.7
20260906132350 21 125 1.6 4.8 0.00 0.00 0.00 88 1020.8
20260906131846 21 128 0.0 1.6 0.00 0.00 0.00 89 1020.8
20260906131341 20 139 1.6 4.8 0.00 0.00 0.00 90 1020.7
20260906130837 20 102 0.0 3.2 0.00 0.00 0.00 91 1020.8
20260906130337 20 130 0.0 3.2 0.00 0.00 0.00 93 1020.8
20260906125835 19 133 1.6 1.6 0.00 0.00 0.00 97 1020.7
20260906125333 18 137 1.6 1.6 0.00 0.00 0.00 99 1020.8
20260906124828 18 140 0.0 0.0 0.00 0.00 0.00 99 1020.8
20260906124324 17 139 0.0 1.6 0.00 0.00 0.00 99 1020.6
20260906123823 17 149 1.6 1.6 0.00 0.00 0.00 99 1020.5
20260906123318 17 144 1.6 1.6 0.00 0.00 0.00 99 1020.4
20260906122817 17 167 0.0 3.2 0.00 0.00 0.00 99 1020.5
20260906122313 17 249 0.0 0.0 0.00 0.00 0.00 99 1020.5
20260906121809 16 249 0.0 1.6 0.00 0.00 0.00 99 1020.3
20260906121259 16 249 0.0 0.0 0.00 0.00 0.00 99 1020.5
20260906120755 16 249 0.0 0.0 0.00 0.00 0.00 99 1020.4
20260906120252 16 249 0.0 0.0 0.00 0.00 0.00 99 1020.2
20260906115747 16 249 0.0 0.0 0.00 0.00 0.00 99 1020.2
20260906115242 15 249 0.0 0.0 0.00 0.00 0.00 99 1020.2
20260906114741 15 249 0.0 0.0 0.00 0.00 0.00 99 1020.1
20260906114236 15 249 0.0 0.0 0.00 0.00 0.00 99 1020.0
20260906113731 15 249 0.0 0.0 0.00 0.00 0.00 99 1019.9
20260906113230 15 249 0.0 0.0 0.00 0.00 0.00 99 1019.8
20260906112725 15 249 0.0 0.0 0.00 0.00 0.00 99 1019.6
20260906112222 15 249 0.0 0.0 0.00 0.00 0.00 99 1019.7
20260906111721 15 249 0.0 0.0 0.00 0.00 0.00 99 1019.4
20260906111215 15 249 0.0 0.0 0.00 0.00 0.00 99 1019.4
20260906110711 15 249 0.0 0.0 0.00 0.00 0.00 99 1019.5
20260906110206 15 249 0.0 0.0 0.00 0.00 0.00 99 1019.5
20260906105700 15 249 0.0 0.0 0.00 0.00 0.00 99 1019.4
20260906105156 15 249 0.0 0.0 0.00 0.00 0.00 99 1019.6
20260906104655 15 249 0.0 0.0 0.00 0.00 0.00 99 1019.6
20260906104149 15 249 0.0 0.0 0.00 0.00 0.00 99 1019.6
20260906103647 15 249 0.0 0.0 0.00 0.00 0.00 99 1019.4
20260906103142 15 249 0.0 0.0 0.00 0.00 0.00 99 1019.2
20260906102638 15 249 0.0 0.0 0.00 0.00 0.00 99 1019.3
20260906102137 15 249 0.0 0.0 0.00 0.00 0.00 99 1019.6
20260906101637 15 249 0.0 0.0 0.00 0.00 0.00 99 1019.8
20260906101136 15 249 0.0 0.0 0.00 0.00 0.00 99 1019.6
20260906100632 15 249 0.0 0.0 0.00 0.00 0.00 99 1019.5
20260906100127 15 249 0.0 1.6 0.00 0.00 0.00 99 1019.5
20260906095622 15 249 0.0 0.0 0.00 0.00 0.00 99 1019.5
20260906095118 15 249 0.0 0.0 0.00 0.00 0.00 99 1019.6
20260906094616 15 249 0.0 0.0 0.00 0.00 0.00 99 1019.5
20260906094113 15 249 0.0 1.6 0.00 0.00 0.00 99 1019.4
20260906093608 15 249 0.0 1.6 0.00 0.00 0.00 99 1019.3
20260906093102 15 249 0.0 0.0 0.00 0.00 0.00 99 1019.2
20260906092557 15 249 0.0 0.0 0.00 0.00 0.00 99 1019.0
20260906092053 15 249 0.0 0.0 0.00 0.00 0.00 99 1019.3
20260906091548 15 249 0.0 0.0 0.00 0.00 0.00 99 1019.4
20260906091045 15 332 3.2 4.8 0.00 0.00 0.00 99 1019.1
20260906090545 15 124 0.0 0.0 0.00 0.00 0.00 99 1019.2
20260906090040 15 124 0.0 0.0 0.00 0.00 0.00 99 1019.3
20260906085539 15 124 0.0 0.0 0.00 0.00 0.00 99 1019.2
20260906085039 15 124 0.0 0.0 0.00 0.00 0.00 99 1019.3
20260906084533 15 124 0.0 0.0 0.00 0.00 0.00 99 1019.2
20260906084032 15 123 0.0 0.0 0.00 0.00 0.00 99 1019.2
20260906083528 15 123 0.0 0.0 0.00 0.00 0.00 99 1019.0
20260906083028 15 124 0.0 0.0 0.00 0.00 0.00 99 1019.1
20260906082523 15 124 0.0 0.0 0.00 0.00 0.00 99 1019.0
20260906082019 15 124 0.0 0.0 0.00 0.00 0.00 99 1019.1
20260906081514 15 124 0.0 0.0 0.00 0.00 0.00 99 1018.9
20260906081010 16 124 0.0 0.0 0.00 0.00 0.00 99 1019.0
20260906080506 16 124 0.0 0.0 0.00 0.00 0.00 99 1018.8
20260906080002 16 123 0.0 0.0 0.00 0.00 0.00 98 1019.0
20260906075455 16 124 0.0 0.0 0.00 0.00 0.00 98 1019.0
20260906074950 16 124 0.0 0.0 0.00 0.00 0.00 98 1019.2
20260906074445 16 124 0.0 0.0 0.00 0.00 0.00 98 1019.3
20260906073943 16 124 0.0 0.0 0.00 0.00 0.00 98 1019.3
20260906073438 16 124 0.0 0.0 0.00 0.00 0.00 98 1019.2
20260906072935 16 124 0.0 0.0 0.00 0.00 0.00 98 1019.2
20260906072430 16 123 0.0 0.0 0.00 0.00 0.00 97 1019.1
20260906071926 16 123 0.0 0.0 0.00 0.00 0.00 97 1019.0
20260906071422 16 123 0.0 1.6 0.00 0.00 0.00 97 1019.1
20260906070917 16 123 0.0 1.6 0.00 0.00 0.00 97 1019.1
20260906070412 16 123 0.0 0.0 0.00 0.00 0.00 97 1019.3
20260906065908 16 123 0.0 0.0 0.00 0.00 0.00 97 1018.9
20260906065403 16 123 0.0 0.0 0.00 0.00 0.00 97 1018.9
20260906064858 16 123 0.0 0.0 0.00 0.00 0.00 97 1018.8
20260906064354 16 123 0.0 1.6 0.00 0.00 0.00 97 1019.0
20260906063849 16 123 0.0 0.0 0.00 0.00 0.00 97 1018.8
20260906063344 16 123 0.0 0.0 0.00 0.00 0.00 96 1018.9
20260906062839 15 123 0.0 0.0 0.00 0.00 0.00 96 1018.9
20260906062338 16 123 0.0 0.0 0.00 0.00 0.00 95 1018.9
20260906061834 16 123 0.0 0.0 0.00 0.00 0.00 95 1018.8
20260906061330 16 123 0.0 0.0 0.00 0.00 0.00 94 1018.8
20260906060824 16 123 0.0 0.0 0.00 0.00 0.00 94 1018.8
20260906060323 16 123 0.0 0.0 0.00 0.00 0.00 94 1018.8
20260906055818 16 123 0.0 0.0 0.00 0.00 0.00 94 1018.7
20260906055314 16 123 0.0 0.0 0.00 0.00 0.00 94 1018.8
20260906054809 16 123 0.0 0.0 0.00 0.00 0.00 94 1018.7
20260906054304 16 123 0.0 0.0 0.00 0.00 0.00 94 1018.8
20260906053800 16 123 0.0 0.0 0.00 0.00 0.00 95 1018.8
20260906053255 16 123 0.0 0.0 0.00 0.00 0.00 97 1018.6
20260906052751 16 123 0.0 0.0 0.00 0.00 0.00 97 1018.4
20260906052247 16 123 0.0 0.0 0.00 0.00 0.00 98 1018.3
20260906051744 16 123 0.0 0.0 0.00 0.00 0.00 98 1018.4
20260906051244 16 123 0.0 0.0 0.00 0.00 0.00 99 1018.3
20260906050739 16 123 0.0 0.0 0.00 0.00 0.00 99 1018.4
20260906050234 16 123 0.0 0.0 0.00 0.00 0.00 99 1018.3
20260906045732 16 123 0.0 0.0 0.00 0.03 0.03 99 1018.2
20260906045227 16 123 0.0 0.0 0.00 0.03 0.03 99 1018.2
20260906044723 16 123 0.0 0.0 0.00 0.03 0.03 99 1018.4
20260906044218 16 123 0.0 0.0 0.00 0.03 0.03 99 1018.5
20260906043714 16 123 0.0 0.0 0.00 0.03 0.03 99 1018.3
20260906043210 16 123 0.0 0.0 0.00 0.03 0.03 99 1018.4
20260906042709 16 123 0.0 0.0 0.00 0.03 0.03 99 1018.3
20260906042203 16 123 0.0 0.0 0.00 0.03 0.03 99 1018.2
20260906041659 16 123 0.0 0.0 0.00 0.03 0.03 99 1018.3
20260906041153 16 123 0.0 0.0 0.00 0.03 0.03 99 1018.1
20260906040648 16 123 0.0 0.0 0.00 0.03 0.03 99 1018.0
20260906040139 16 123 0.0 0.0 0.00 0.03 0.03 99 1018.1
20260906035633 16 123 0.0 0.0 0.00 0.03 0.03 99 1017.9
20260906035130 16 123 0.0 0.0 0.00 0.03 0.03 99 1018.0
20260906034629 16 123 0.0 0.0 0.00 0.03 0.03 98 1018.1
20260906034124 16 123 0.0 0.0 0.00 0.03 0.03 98 1017.9
20260906033620 16 123 0.0 0.0 0.00 0.03 0.03 98 1017.9
20260906033120 16 123 0.0 0.0 0.00 0.03 0.03 98 1018.0
20260906032617 16 123 0.0 0.0 0.00 0.03 0.03 97 1018.0
20260906032116 17 123 0.0 0.0 0.00 0.03 0.03 97 1018.0
20260906031612 17 123 0.0 0.0 0.00 0.03 0.03 97 1017.8
20260906031108 17 123 0.0 0.0 0.00 0.03 0.03 97 1017.9
20260906030606 17 123 0.0 0.0 0.00 0.03 0.03 97 1017.9
20260906030101 17 123 0.0 0.0 0.00 0.03 0.03 96 1017.8
20260906025556 17 123 0.0 0.0 0.00 0.03 0.03 97 1018.0
20260906025054 17 123 0.0 0.0 0.00 0.03 0.03 96 1017.8
20260906024549 17 123 0.0 0.0 0.00 0.03 0.03 96 1018.0
20260906024049 17 123 0.0 0.0 0.00 0.03 0.03 96 1017.9
20260906023546 17 123 0.0 0.0 0.00 0.03 0.03 96 1017.8
20260906023040 17 123 0.0 0.0 0.00 0.03 0.03 96 1017.9
20260906022536 18 123 0.0 0.0 0.00 0.03 0.03 95 1017.8
20260906022031 18 123 0.0 0.0 0.00 0.03 0.03 95 1017.5
20260906021526 18 123 0.0 0.0 0.00 0.03 0.03 94 1017.8
20260906021020 18 123 0.0 0.0 0.00 0.03 0.03 94 1017.9
20260906020520 18 123 0.0 0.0 0.00 0.03 0.03 94 1017.8
20260906020019 18 123 0.0 0.0 0.00 0.03 0.03 94 1017.8
20260906015518 18 123 0.0 0.0 0.00 0.03 0.03 93 1018.0
20260906015018 19 123 0.0 0.0 0.00 0.03 0.03 92 1017.9
20260906014513 19 123 0.0 0.0 0.00 0.03 0.03 92 1017.9
20260906014009 20 123 0.0 0.0 0.00 0.03 0.03 91 1017.5
20260906013504 20 123 0.0 0.0 0.00 0.03 0.03 90 1017.8
20260906013000 20 123 0.0 0.0 0.00 0.03 0.03 89 1017.5
20260906012455 20 123 0.0 0.0 0.00 0.03 0.03 88 1017.5
20260906011954 20 123 0.0 1.6 0.00 0.03 0.03 87 1017.7
20260906011450 21 121 0.0 3.2 0.00 0.03 0.03 87 1017.7
20260906010944 21 139 1.6 1.6 0.00 0.03 0.03 87 1017.7
20260906010440 21 139 0.0 1.6 0.00 0.03 0.03 86 1017.5
20260906005936 21 139 0.0 1.6 0.00 0.03 0.03 86 1017.7
20260906005436 21 139 0.0 0.0 0.00 0.03 0.03 85 1017.5
20260906004934 21 139 0.0 1.6 0.00 0.03 0.03 85 1017.4
20260906004428 21 139 0.0 1.6 0.00 0.03 0.03 84 1017.2
20260906003924 21 141 0.0 1.6 0.00 0.03 0.03 84 1017.3
20260906003419 21 141 0.0 1.6 0.00 0.03 0.03 83 1017.3
20260906002914 21 189 1.6 3.2 0.00 0.03 0.03 83 1017.3
20260906002409 21 164 0.0 0.0 0.00 0.03 0.03 83 1017.1
20260906001904 21 187 0.0 0.0 0.00 0.03 0.03 83 1017.1
20260906001359 22 167 0.0 1.6 0.00 0.03 0.03 82 1017.4
20260906000859 22 212 0.0 3.2 0.00 0.03 0.03 82 1017.3
20260906000356 22 260 3.2 4.8 0.00 0.03 0.03 81 1017.1
20260905235849 22 249 0.0 6.4 0.00 0.03 0.03 80 1017.2
20260905235343 23 120 1.6 4.8 0.00 0.03 0.03 80 1017.0
20260905234838 23 107 1.6 3.2 0.00 0.03 0.03 79 1017.2
20260905234334 23 191 1.6 1.6 0.00 0.03 0.03 78 1017.2
20260905233829 23 38 3.2 12.9 0.00 0.03 0.03 78 1017.2
20260905233324 23 55 3.2 4.8 0.00 0.03 0.03 77 1017.1
20260905232823 23 184 1.6 4.8 0.00 0.03 0.03 76 1017.3
20260905232319 23 89 3.2 6.4 0.00 0.03 0.03 77 1017.3
20260905231815 24 92 3.2 3.2 0.00 0.03 0.03 75 1017.5
20260905231310 24 341 3.2 6.4 0.00 0.03 0.03 76 1017.4
20260905230806 24 167 0.0 4.8 0.00 0.03 0.03 76 1017.4
20260905230304 24 96 1.6 4.8 0.00 0.03 0.03 76 1017.3
20260905225803 24 16 1.6 3.2 0.00 0.03 0.03 76 1017.3
20260905225259 24 322 4.8 4.8 0.00 0.03 0.03 76 1017.5
20260905224758 24 338 6.4 11.3 0.00 0.03 0.03 76 1017.4
20260905224254 24 340 4.8 9.7 0.00 0.03 0.03 75 1017.2
20260905223749 24 62 3.2 4.8 0.00 0.03 0.03 75 1017.0
20260905223246 24 20 4.8 12.9 0.00 0.03 0.03 75 1017.1
20260905222741 24 141 1.6 3.2 0.00 0.03 0.03 74 1017.1
20260905222240 24 151 0.0 1.6 0.00 0.03 0.03 75 1017.1
20260905221736 24 99 4.8 4.8 0.00 0.03 0.03 74 1017.0
20260905221233 24 82 0.0 6.4 0.00 0.03 0.03 74 1017.0
20260905220729 25 108 1.6 4.8 0.00 0.03 0.03 72 1017.0
20260905220225 25 115 0.0 4.8 0.00 0.03 0.03 73 1016.9
20260905215724 26 341 0.0 11.3 0.00 0.03 0.03 72 1017.0
20260905215220 25 173 0.0 1.6 0.00 0.03 0.03 70 1017.2
20260905214715 25 259 3.2 9.7 0.00 0.03 0.03 73 1017.2
20260905214211 25 245 1.6 3.2 0.00 0.03 0.03 73 1017.3
20260905213706 25 127 3.2 6.4 0.00 0.03 0.03 73 1017.3
20260905213202 25 202 1.6 4.8 0.00 0.03 0.03 71 1017.3
20260905212657 25 9 0.0 3.2 0.00 0.03 0.03 73 1017.2
20260905212156 24 120 0.0 3.2 0.00 0.03 0.03 76 1017.3
20260905211650 24 116 1.6 3.2 0.00 0.03 0.03 76 1017.4
20260905211146 25 179 0.0 1.6 0.00 0.03 0.03 76 1017.4
20260905210643 24 53 4.8 11.3 0.00 0.03 0.03 76 1017.3
20260905210137 25 340 6.4 9.7 0.00 0.03 0.03 76 1017.2
20260905205636 24 53 1.6 6.4 0.00 0.03 0.03 78 1017.2
20260905205136 24 14 4.8 9.7 0.00 0.03 0.03 77 1017.1
20260905204630 24 327 4.8 11.3 0.00 0.03 0.03 78 1017.1
20260905204125 24 122 0.0 4.8 0.00 0.03 0.03 81 1017.1
20260905203625 24 180 1.6 4.8 0.00 0.03 0.03 80 1017.2
20260905203121 24 260 1.6 3.2 0.00 0.03 0.03 81 1017.0
20260905202616 24 110 3.2 4.8 0.00 0.03 0.03 81 1016.9
20260905202111 24 142 1.6 6.4 0.00 0.03 0.03 80 1016.9
20260905201607 25 145 3.2 6.4 0.00 0.03 0.03 79 1017.2
20260905201106 25 167 1.6 6.4 0.00 0.03 0.03 79 1017.0
20260905200602 25 64 4.8 9.7 0.00 0.03 0.03 79 1017.1
20260905200056 25 153 0.0 3.2 0.00 0.03 0.03 78 1017.1
20260905195550 25 64 0.0 4.8 0.00 0.03 0.03 80 1017.0
20260905195046 26 77 0.0 11.3 0.00 0.03 0.03 79 1017.1
20260905194545 26 70 0.0 9.7 0.00 0.03 0.03 80 1017.0
20260905194044 25 117 6.4 9.7 0.00 0.03 0.03 80 1017.1
20260905193539 25 323 1.6 4.8 0.00 0.03 0.03 81 1017.1
20260905193035 24 61 1.6 4.8 0.00 0.03 0.03 83 1017.2
20260905192529 25 277 6.4 11.3 0.00 0.03 0.03 81 1017.2
20260905192026 25 354 0.0 9.7 0.00 0.03 0.03 81 1017.1
20260905191524 25 75 3.2 11.3 0.00 0.03 0.03 83 1017.0
20260905191024 25 340 6.4 12.9 0.00 0.03 0.03 82 1017.0
20260905190522 25 354 3.2 4.8 0.00 0.03 0.03 83 1017.2
20260905190021 24 22 1.6 3.2 0.00 0.03 0.03 84 1017.2
20260905185515 24 303 3.2 9.7 0.00 0.03 0.03 85 1017.1
20260905185015 23 349 4.8 6.4 0.00 0.03 0.03 85 1017.3
20260905184510 23 290 1.6 3.2 0.00 0.03 0.03 86 1017.4
20260905184008 23 320 1.6 6.4 0.00 0.03 0.03 86 1017.4
20260905183508 23 55 0.0 3.2 0.00 0.03 0.03 88 1017.3
20260905183003 23 30 1.6 4.8 0.00 0.03 0.03 87 1017.2
20260905182502 23 7 6.4 9.7 0.00 0.03 0.03 87 1017.3
20260905181957 23 337 0.0 4.8 0.00 0.03 0.03 87 1017.5
20260905181452 23 134 0.0 1.6 0.00 0.03 0.03 87 1017.2
20260905180952 23 109 1.6 3.2 0.00 0.03 0.03 87 1017.1
20260905180452 23 219 0.0 1.6 0.00 0.03 0.03 88 1017.3
20260905175947 22 89 1.6 4.8 0.00 0.03 0.03 89 1017.3
20260905175446 22 164 3.2 3.2 0.00 0.03 0.03 88 1017.1
20260905174942 23 125 0.0 1.6 0.00 0.03 0.03 89 1017.2
20260905174437 22 150 0.0 3.2 0.00 0.03 0.03 90 1017.2
20260905173933 22 105 1.6 4.8 0.00 0.03 0.03 90 1017.2
20260905173429 22 164 0.0 4.8 0.00 0.03 0.03 90 1017.2
20260905172925 22 117 3.2 6.4 0.00 0.03 0.03 90 1017.3
20260905172422 22 335 0.0 3.2 0.00 0.03 0.03 91 1017.2
20260905171918 22 177 0.0 3.2 0.00 0.03 0.03 91 1017.3
20260905171416 22 25 3.2 4.8 0.00 0.03 0.03 91 1017.4
20260905170911 22 123 0.0 3.2 0.00 0.03 0.03 90 1017.4
20260905170407 22 57 4.8 6.4 0.00 0.03 0.03 90 1017.5
20260905165906 22 9 1.6 3.2 0.00 0.03 0.03 90 1017.5
20260905165401 23 137 0.0 1.6 0.00 0.03 0.03 89 1017.4
20260905164856 23 115 3.2 4.8 0.00 0.03 0.03 89 1017.7
20260905164351 23 81 1.6 4.8 0.00 0.03 0.03 88 1017.5
20260905163846 23 311 0.0 1.6 0.00 0.03 0.03 88 1017.4
20260905163343 23 344 3.2 4.8 0.00 0.03 0.03 90 1017.4
20260905162839 23 151 0.0 0.0 0.00 0.03 0.03 91 1017.3
20260905162338 22 122 0.0 6.4 0.00 0.03 0.03 90 1017.3
20260905161833 22 269 1.6 3.2 0.00 0.03 0.03 92 1017.4